Ana Sayfa
METAR-TAF:

METAR-TAF

Havaalanları :

Hillsboro, Teksas, Amerika Birleşik Devletleri

Enlem: 32-05N, Boylam: 097-05-50W, yükseklik: 209 m

Güncel hava durumu gözlemi

Rapor saat 16:15 UTC de 19 dakika önce yapıldı.
Rüzgar güneybatıdan 7 kt
Sıcaklık 27°C
Nem 74%
Basınç 1012 hPa
Görüş mesafesi: 16.1 km
Açık gökyüzü

METAR: KINJ 181615Z AUTO 22007KT 10SM CLR 27/22 A2989 RMK AO2 T02730216

Saat: 11:34 (16:34 UTC)


TAF: eksik

4.000'den fazla havaalanı için hava durumu gözlemleri ve tahminleri (METAR ve TAF raporları).

Kullanılabilir istasyonlar harita üzerinde sarı ve kırmızı noktalarla gösterilir.

İstasyonun adını görmek için fareyi noktanın üzerinde gezdirin.

Sonrasında hava gözlem ve tahminlerini görmek için tıklayın.

Haritayı değiştirmek için: yaklaştırmak için siyah artı işaretli yeşil düğmeye ve uzaklaştırmak için de eksi işaretli düğmeye hızla tıklayın; bitişik haritalar için yeşil okları kullanın.


METAR-TAF: